Regional Weather Roundup
Issued by NWS Grand Forks, ND

Home | Current Version | Previous Version | Text Only | Print | Product List | Glossary On
Versions: 1 2 3 4 5 6 7 8 9 10 11 12 13 14 15 16 17 18 19 20 21 22 23 24 25 26 27 28 29 30 31 32 33 34 35 36 37 38 39 40 41 42 43 44 45 46 47 48 49 50
000
ASUS43 KFGF 260031
RWRFGF
PRAIRIE TO PINES  WEATHER ROUNDUP
NATIONAL WEATHER SERVICE EASTERN NORTH DAKOTA/GRAND FORKS ND
700 PM CDT WED MAY 25 2016

 **SATELLITE DATA USED TO AUGMENT SKY COVER AT AUTOMATED STATIONS**
 *****  WEATHER ACROSS EASTERN NORTH DAKOTA  *****

CITY           SKY/WX    TMP DP  RH WIND       PRES   REMARKS
GRAND FORKS    CLOUDY    62  59  90 E6        29.66F
6HR MIN TEMP:  61; 6HR MAX TEMP:  63; 6HR PCP:  0.85;

GRAND FRKS AFB DRIZZLE   61  61 100 N8        29.67F
GRAND FRKS NWS   N/A     59 N/A N/A VRB3        N/A
DEVILS LAKE    CLOUDY    60  57  89 NE15      29.75F
6HR MIN TEMP:  58; 6HR MAX TEMP:  61; 6HR PCP:  0.31;

FARGO          MOSUNNY   66  58  75 W9        29.72S
WAHPETON ARPT  CLEAR     68  57  68 NW7       29.74S
$$

 ***** WEATHER ACROSS CENTRAL AND WESTERN NORTH DAKOTA  *****

CITY           SKY/WX    TMP DP  RH WIND       PRES   REMARKS
BISMARCK       CLOUDY    60  57  89 CALM      29.75S
6HR MIN TEMP:  58; 6HR MAX TEMP:  71; 6HR PCP:  0.46;

MINOT          LGT RAIN  61  58  90 E3        29.75R
6HR MIN TEMP:  62; 6HR MAX TEMP:  67; 6HR PCP:  0.05;

JAMESTOWN      NOT AVBL
MINOT AFB      CLOUDY    61  57  88 E14       29.74F
GARRISON         N/A     60  56  86 W9        29.75F
WILLISTON      PTSUNNY   59  49  69 NW12      29.81F
6HR MIN TEMP:  53; 6HR MAX TEMP:  60; 6HR PCP: TRACE;

DICKINSON      MOSUNNY   57  43  59 NW17      29.81R
6HR MIN TEMP:  54; 6HR MAX TEMP:  61;

HETTINGER      SUNNY     64  43  46 NW22G28   29.84S
6HR MIN TEMP:  59; 6HR MAX TEMP:  66;

$$

 *****  OTHER AIRPORT OBSERVATIONS IN OUR AREA  *****

CITY           SKY/WX    TMP DP  RH WIND       PRES   REMARKS
WALHALLA       FAIR      55  55 100 NE9       29.77F
GRAFTON AIRPOR DRIZZLE   57  57 100 N13       29.71F
VALLEY CITY AR FAIR      64  63  94 NW7       29.76F
CANDO          MOCLDY    59  57  94 NE13      29.77F
CAVALIER APRT  RAIN      57  57 100 N13G20    29.75F VSB 3/4
GWINNER        FAIR      70  61  73 NE5       29.74S
ROLLA          CLOUDY    55  55 100 E14       29.78F
 ***** THE ABOVE OBSERVATIONS ARE NON NWS ARE NOT QUALITY
       CONTROLLED AND MAY MIS-REPORT RAIN FOR SNOW...
$$

  *****  WEATHER ACROSS NORTHERN MINNESOTA  *****

CITY           SKY/WX    TMP DP  RH WIND       PRES   REMARKS
FLAG ISLAND    LGT RAIN  59  57  94 E10       29.81F
WARROAD        RAIN      59  55  88 NE14G20   29.78F
ROSEAU         RAIN      59  54  82 E20       29.75F
HALLOCK        CLOUDY    59  57  94 NE14      29.72S FOG
THF RVR FALLS  CLOUDY    61  55  82 SE13      29.70S
6HR MIN TEMP:  61; 6HR MAX TEMP:  64; 6HR PCP:  0.40;

BAUDETTE       RAIN      60  57  89 E8        29.81R FOG
6HR MIN TEMP:  58; 6HR MAX TEMP:  64; 6HR PCP:  0.28;

WASKISH        LGT RAIN  59  57  94 SE12G22   29.78R
CROOKSTON      PTSUNNY   63  63 100 SE8       29.66F
STEPHEN NDAWN    N/A     61  57  88 E17         N/A
GREENBUSH NDAW   N/A     59  57  94 NE18        N/A
$$
  *****  WEATHER ACROSS CENTRAL AND WEST MINNESOTA  *****

CITY           SKY/WX    TMP DP  RH WIND       PRES   REMARKS
FOSSTON        CLOUDY    63  63 100 SE8       29.71F
BEMIDJI        CLOUDY    62  57  83 SE21G26   29.76S
PARK RAPIDS    CLOUDY    67  60  78 SE10      29.76F
6HR MIN TEMP:  62; 6HR MAX TEMP:  67; 6HR PCP:  0.05;

ELBOW LAKE     FAIR      72  62  70 W8        29.75S
6HR MIN TEMP:  64; 6HR MAX TEMP:  76; 6HR PCP:  0.11;

WADENA         PTSUNNY   70  63  78 S6        29.76S
DETROIT LAKES  SUNNY     68  61  77 SW10      29.76R
MOORHEAD       SUNNY     66  61  82 SW8       29.73S
FERGUS FALLS   SUNNY     70  61  73 W7        29.71F
MORRIS MN      SUNNY     77  57  50 W10       29.74S
STAPLES        CLOUDY    68  61  77 E7        29.78S
$$
  *****  WEATHER ELSEWHERE ACROSS MINNESOTA  *****

CITY           SKY/WX    TMP DP  RH WIND       PRES   REMARKS
DULUTH         CLOUDY    50  48  93 E17       29.89F
6HR MIN TEMP:  49; 6HR MAX TEMP:  53; 6HR PCP:  0.17;

INTRNTL FALLS  LGT RAIN  62  55  77 E9        29.84F
6HR MIN TEMP:  62; 6HR MAX TEMP:  67; 6HR PCP:  0.01;

ELY            CLOUDY    57  48  72 SE13G20   29.92S
CLOQUET        CLOUDY    48  46  93 E13G21    29.89S
WHEATON        SUNNY     75  64  69 N6        29.75S
BRAINERD       CLOUDY    60  57  89 E8G18     29.81S
6HR MIN TEMP:  58; 6HR MAX TEMP:  65; 6HR PCP:  0.02;

HIBBING        CLOUDY    55  53  93 SE16G23   29.88R
6HR MIN TEMP:  55; 6HR MAX TEMP:  65; 6HR PCP:  0.18;

ALEXANDRIA     MOSUNNY   74  57  55 SW10      29.77S
6HR MIN TEMP:  64; 6HR MAX TEMP:  77; 6HR PCP:  0.01;

SAINT CLOUD    PTSUNNY   73  65  75 SE5       29.79R
6HR MIN TEMP:  64; 6HR MAX TEMP:  75; 6HR PCP: TRACE;

MINNEAPOLIS    CLOUDY    75  63  66 E5        29.79S
6HR MIN TEMP:  71; 6HR MAX TEMP:  76; 6HR PCP: TRACE;

$$

  *****  WEATHER ACROSS SOUTH DAKOTA  *****

CITY           SKY/WX    TMP DP  RH WIND       PRES   REMARKS
SIOUX FALLS    MOSUNNY   78  61  55 VRB5      29.78F
6HR MIN TEMP:  71; 6HR MAX TEMP:  80;

BROOKINGS      MOSUNNY   74  59  59 SW9       29.79R
WATERTOWN      MOSUNNY   75  58  55 SW13      29.77S
6HR MIN TEMP:  69; 6HR MAX TEMP:  76;

HURON          SUNNY     74  56  53 W5        29.75F THUNDER
6HR MIN TEMP:  70; 6HR MAX TEMP:  79;

SISSETON         N/A     75  58  55 SW10      29.72S
ABERDEEN       SUNNY     75  57  53 W13       29.74R
6HR MIN TEMP:  70; 6HR MAX TEMP:  79;

MITCHELL       SUNNY     76  60  57 SE5       29.77F
PIERRE         CLOUDY    69  52  54 W8        29.78R
6HR MIN TEMP:  53; 6HR MAX TEMP:  75; 6HR PCP:  0.16;

MOBRIDGE       PTSUNNY   69  55  60 NW13G22   29.73R
RAPID CITY     LGT RAIN  62  47  57 NE5       29.88R
6HR MIN TEMP:  54; 6HR MAX TEMP:  68; 6HR PCP:  0.08;

$$

  *****  SOME WEATHER IN NEARBY STATES *****

CITY           SKY/WX    TMP DP  RH WIND       PRES   REMARKS
GLASGOW MT     PTSUNNY   64  40  41 CALM      29.81F
6HR MIN TEMP:  60; 6HR MAX TEMP:  67;

GREAT FALLS MT PTSUNNY   59  43  55 SW13      29.87F
6HR MIN TEMP:  54; 6HR MAX TEMP:  68; 6HR PCP: TRACE;

CHEYENNE WY    CLOUDY    61  36  39 S3        29.97S
6HR MIN TEMP:  55; 6HR MAX TEMP:  66; 6HR PCP:  0.04;

SCOTTSBLUFF NE SUNNY     72  37  28 SW14      29.90S
6HR MIN TEMP:  66; 6HR MAX TEMP:  74; 6HR PCP: TRACE;

OMAHA NE       PTSUNNY   78  66  66 S5        29.82S
6HR MIN TEMP:  76; 6HR MAX TEMP:  82;

DES MOINES IA  MOSUNNY   79  62  56 CALM      29.85S
6HR MIN TEMP:  74; 6HR MAX TEMP:  80;

DAVENPORT IA   SUNNY     82  58  43 SW16      29.86S
6HR MIN TEMP:  81; 6HR MAX TEMP:  85; 6HR PCP: TRACE;

CHICAGO IL     TSTM      67  64  90 E10       29.92F FOG
6HR MIN TEMP:  65; 6HR MAX TEMP:  86; 6HR PCP:  0.79;

EAU CLAIRE WI  CLOUDY    67  65  93 CALM      29.81S
6HR MIN TEMP:  64; 6HR MAX TEMP:  79; 6HR PCP:  1.27;

LA CROSSE WI   MOSUNNY   77  63  61 SW10      29.80S
6HR MIN TEMP:  71; 6HR MAX TEMP:  80; 6HR PCP:  0.09;

$$

  *****  SOME NATIONAL WEATHER *****

CITY           SKY/WX    TMP DP  RH WIND       PRES   REMARKS
LA GUARDIA NY  PTCLDY    86  50  28 SW9       30.02R
6HR MIN TEMP:  84; 6HR MAX TEMP:  90;

RALEIGH NC     MOCLDY    78  59  51 CALM      30.15S
6HR MIN TEMP:  78; 6HR MAX TEMP:  87;

ATLANTA GA     PTCLDY    82  54  37 S8        30.17R
6HR MIN TEMP:  82; 6HR MAX TEMP:  87;

NEW ORLEANS LA MOCLDY    83  72  69 S12       30.10R
6HR MIN TEMP:  82; 6HR MAX TEMP:  90;

OKLAHOMA CITY  MOSUNNY   84  74  71 S18G24    29.85F HX  91
6HR MIN TEMP:  84; 6HR MAX TEMP:  89;

ALBUQUERQUE NM CLOUDY    79  16   9 S20       29.95F
6HR MIN TEMP:  71; 6HR MAX TEMP:  79;

SALT LAKE CITY PTSUNNY   67  34  29 SE9       29.98F
6HR MIN TEMP:  58; 6HR MAX TEMP:  68; 6HR PCP: TRACE;

LOS ANGELES CA MOSUNNY   65  51  60 W17       30.07F
6HR MIN TEMP:  62; 6HR MAX TEMP:  67;

BOISE ID       PTSUNNY  C1F1C2F2C3F3C4F4C5F5C6F6C7F7C8F8C9F9CaFaCbFbCcFcCd!



USA.gov is the U.S. government's official web portal to all federal, state and local government web resources and services.